Date,TemperatureHighF,TemperatureAvgF,TemperatureLowF,DewpointHighF,DewpointAvgF,DewpointLowF,HumidityHigh,HumidityAvg,HumidityLow,PressureMaxIn,PressureMinIn,WindSpeedMaxMPH,WindSpeedAvgMPH,GustSpeedMaxMPH,PrecipitationSumIn
2013-11-1,53.0,43.2,35.0,30.0,27.3,24.0,72,54,32,30.15,29.94,23,8,31,0.01
2013-11-2,54.0,42.0,30.0,31.0,26.4,-99.9,81,57,37,30.13,29.59,13,4,21,0.00
2013-11-3,44.0,39.2,31.0,35.0,24.0,15.0,75,55,32,29.88,29.57,25,14,37,0.01
2013-11-4,41.0,30.7,23.0,25.0,20.8,16.0,92,69,39,30.05,29.88,18,5,25,0.00
2013-11-5,39.0,27.9,16.0,28.0,19.3,14.0,94,73,46,30.11,30.01,11,4,18,0.00
2013-11-6,47.0,34.9,24.0,25.0,19.0,15.0,74,53,37,30.29,30.06,18,4,24,0.00
2013-11-7,45.0,36.4,23.0,31.0,24.7,17.0,82,63,47,30.30,29.75,9,2,14,0.00
2013-11-8,52.0,42.4,32.0,34.0,27.9,21.0,89,59,29,29.98,29.67,29,6,38,0.02
2013-11-9,46.0,38.9,32.0,29.0,24.1,-99.9,77,58,43,30.19,29.99,15,2,22,0.01
2013-11-10,46.0,37.5,28.0,32.0,27.5,24.0,91,68,53,30.19,30.09,25,4,30,0.00
2013-11-11,36.0,29.4,25.0,29.0,25.3,22.0,93,85,73,30.52,30.18,24,8,30,0.00
2013-11-12,54.0,39.5,25.0,35.0,29.0,22.0,92,69,44,30.53,30.27,9,3,13,0.00
2013-11-13,50.0,42.1,35.0,34.0,31.1,28.0,76,65,50,30.26,30.03,6,1,11,0.00
2013-11-14,47.0,35.7,28.0,31.0,25.5,20.0,78,67,48,30.06,29.70,6,1,7,0.00
2013-11-15,50.0,35.6,21.0,30.0,21.5,16.0,87,60,27,29.70,29.36,10,3,16,0.00
2013-11-16,47.0,37.0,32.0,28.0,19.7,-99.9,85,52,31,29.48,29.22,26,6,37,0.00
2013-11-17,45.0,34.0,20.0,23.0,15.9,13.0,82,50,28,29.96,29.48,21,6,29,0.00
2013-11-18,49.0,37.3,28.0,21.0,18.1,15.0,58,46,32,30.03,29.80,9,3,13,0.00
2013-11-19,56.0,44.2,35.0,30.0,26.2,20.0,64,50,34,29.80,29.60,15,3,24,0.00
2013-11-20,42.0,24.8,11.0,29.0,17.0,4.0,84,72,57,30.26,29.70,35,16,46,0.00
2013-11-21,22.0,12.9,7.0,11.0,6.9,2.0,86,76,60,30.53,30.26,17,8,24,0.00
2013-11-22,26.0,14.5,5.0,11.0,7.2,2.0,87,74,48,30.57,30.49,8,4,10,0.00
2013-11-24,20.0,18.0,14.0,14.0,-3.6,-99.9,83,66,76,30.19,30.11,327,1,327,0.00
2013-11-25,41.0,27.4,17.0,25.0,18.9,12.0,82,71,51,30.36,30.16,5,1,10,0.00
2013-11-26,42.0,30.4,19.0,25.0,21.2,14.0,84,69,50,30.38,30.16,7,2,12,0.00
2013-11-27,50.0,33.0,22.0,27.0,22.9,18.0,85,68,37,30.16,30.03,9,2,14,0.00
2013-11-28,42.0,28.8,14.0,29.0,22.3,11.0,90,77,58,30.13,30.03,10,4,12,0.00
2013-11-29,47.0,35.2,23.0,30.0,25.1,20.0,89,68,47,30.12,30.04,8,2,14,0.00
2013-11-30,47.0,36.2,27.0,29.0,24.5,-99.9,79,65,47,30.16,30.06,8,2,12,0.00